Location: *
(2.5500°S, 65.9667°W)
Time: 07:32:21
(UTC+00:00)

Explorer 7 - Pass Details

Date: 24 April 2024
Orbit: 467 x 625 km, 50.3° (Epoch: 26 May)

Event Time Altitude Azimuth Distance (km) Brightness Sun altitude
Rises 10:57:03 0° 226° (SW) 2,658 9.8 8.0°
Reaches altitude 10° 10:59:16 10° 232° (SW) 1,794 8.9 8.5°
Maximum altitude 11:03:13 48° 307° (NW) 729 7.3 9.4°
Drops below altitude 10° 11:07:23 10° 22° (NNE) 1,884 10.1 10.5°
Sets 11:09:46 0° 28° (NNE) 2,807 11.1 11.0°
